Time,TemperatureF,DewpointF,PressureIn,WindDirection,WindDirectionDegrees,WindSpeedMPH,WindSpeedGustMPH,Humidity,HourlyPrecipIn,Conditions,Clouds,dailyrainin,SoftwareType,DateUTC
2013-03-04 00:01:00,28.0,24.0,-100.00,NW,305,4.0,9.0,87,0.00,,,-99.99,,2013-03-04 05:01:00,
2013-03-04 00:11:00,28.0,24.0,-100.00,NW,320,5.0,11.0,86,0.00,,,-99.99,,2013-03-04 05:11:00,
2013-03-04 00:22:00,28.0,24.0,-100.00,NNW,330,4.0,9.0,85,0.00,,,-99.99,,2013-03-04 05:22:00,
2013-03-04 00:32:00,28.0,24.0,-100.00,NNW,345,4.0,8.0,85,0.00,,,-99.99,,2013-03-04 05:32:00,
2013-03-04 00:42:00,28.0,24.0,-100.00,WNW,285,2.0,7.0,84,0.00,,,-99.99,,2013-03-04 05:42:00,
2013-03-04 00:52:00,28.0,24.0,-100.00,WNW,300,4.0,6.0,84,0.00,,,-99.99,,2013-03-04 05:52:00,
2013-03-04 01:02:00,28.0,24.0,-100.00,WNW,285,2.0,6.0,84,0.00,,,-99.99,,2013-03-04 06:02:00,
2013-03-04 01:11:00,28.0,23.0,-100.00,NW,325,3.0,8.0,84,0.00,,,-99.99,,2013-03-04 06:11:00,
2013-03-04 01:21:00,28.0,23.0,-100.00,NNW,340,1.0,4.0,83,0.00,,,-99.99,,2013-03-04 06:21:00,
2013-03-04 01:32:00,28.0,23.0,-100.00,NW,305,2.0,5.0,83,0.00,,,-99.99,,2013-03-04 06:32:00,
2013-03-04 01:42:00,28.0,23.0,-100.00,WNW,290,1.0,3.0,83,0.00,,,-99.99,,2013-03-04 06:42:00,
2013-03-04 01:51:00,28.0,23.0,-100.00,WSW,250,1.0,4.0,83,0.00,,,-99.99,,2013-03-04 06:51:00,
2013-03-04 02:02:00,28.0,23.0,-100.00,WSW,245,1.0,2.0,83,0.00,,,-99.99,,2013-03-04 07:02:00,
2013-03-04 02:11:00,28.0,23.0,-100.00,West,270,1.0,2.0,83,0.00,,,-99.99,,2013-03-04 07:11:00,
2013-03-04 02:21:00,28.0,23.0,-100.00,WNW,300,1.0,3.0,83,0.00,,,-99.99,,2013-03-04 07:21:00,
2013-03-04 02:32:00,28.0,23.0,-100.00,West,260,2.0,3.0,83,0.00,,,-99.99,,2013-03-04 07:32:00,
2013-03-04 02:42:00,28.0,24.0,-100.00,West,265,2.0,3.0,83,0.00,,,-99.99,,2013-03-04 07:42:00,
2013-03-04 02:52:00,28.0,24.0,-100.00,West,260,1.0,4.0,83,0.00,,,-99.99,,2013-03-04 07:52:00,
2013-03-04 03:02:00,28.0,24.0,-100.00,West,270,1.0,7.0,83,0.00,,,-99.99,,2013-03-04 08:02:00,
2013-03-04 03:11:00,28.0,24.0,-100.00,WSW,255,3.0,4.0,83,0.00,,,-99.99,,2013-03-04 08:11:00,
2013-03-04 03:22:00,28.0,24.0,-100.00,West,270,3.0,4.0,83,0.00,,,-99.99,,2013-03-04 08:22:00,
2013-03-04 03:32:00,28.0,23.0,-100.00,WSW,255,4.0,7.0,83,0.00,,,-99.99,,2013-03-04 08:32:00,
2013-03-04 03:42:00,28.0,24.0,-100.00,West,275,4.0,7.0,83,0.00,,,-99.99,,2013-03-04 08:42:00,
2013-03-04 03:52:00,27.0,23.0,-100.00,West,265,4.0,6.0,84,0.00,,,-99.99,,2013-03-04 08:52:00,
2013-03-04 04:02:00,27.0,23.0,-100.00,WSW,255,2.0,6.0,84,0.00,,,-99.99,,2013-03-04 09:02:00,
2013-03-04 04:11:00,26.0,22.0,-100.00,SW,220,1.0,3.0,84,0.00,,,-99.99,,2013-03-04 09:11:00,
2013-03-04 04:21:00,26.0,22.0,-100.00,SW,215,0.0,2.0,85,0.00,,,-99.99,,2013-03-04 09:21:00,
2013-03-04 04:32:00,26.0,22.0,-100.00,SW,215,1.0,4.0,86,0.00,,,-99.99,,2013-03-04 09:32:00,
2013-03-04 04:42:00,26.0,22.0,-100.00,South,190,1.0,1.0,86,0.00,,,-99.99,,2013-03-04 09:42:00,
2013-03-04 04:52:00,26.0,23.0,-100.00,SW,215,2.0,3.0,87,0.00,,,-99.99,,2013-03-04 09:52:00,
2013-03-04 05:01:00,26.0,23.0,-100.00,SW,220,1.0,3.0,87,0.00,,,-99.99,,2013-03-04 10:01:00,
2013-03-04 05:11:00,26.0,22.0,-100.00,South,170,1.0,1.0,88,0.00,,,-99.99,,2013-03-04 10:11:00,
2013-03-04 05:22:00,25.0,22.0,-100.00,South,180,1.0,2.0,88,0.00,,,-99.99,,2013-03-04 10:22:00,
2013-03-04 05:32:00,24.0,21.0,-100.00,SSW,200,1.0,2.0,89,0.00,,,-99.99,,2013-03-04 10:32:00,
2013-03-04 05:42:00,24.0,22.0,-100.00,SSW,200,1.0,2.0,90,0.00,,,-99.99,,2013-03-04 10:42:00,
2013-03-04 05:52:00,24.0,22.0,-100.00,SSW,205,1.0,4.0,91,0.00,,,-99.99,,2013-03-04 10:52:00,
2013-03-04 06:02:00,24.0,22.0,-100.00,South,190,1.0,2.0,91,0.00,,,-99.99,,2013-03-04 11:02:00,
2013-03-04 06:11:00,24.0,22.0,-100.00,SW,225,1.0,3.0,92,0.00,,,-99.99,,2013-03-04 11:11:00,
2013-03-04 06:22:00,24.0,22.0,-100.00,SW,215,1.0,3.0,93,0.00,,,-99.99,,2013-03-04 11:22:00,
2013-03-04 06:32:00,25.0,24.0,-100.00,WSW,245,2.0,4.0,94,0.00,,,-99.99,,2013-03-04 11:32:00,
2013-03-04 06:42:00,26.0,25.0,-100.00,SW,230,3.0,4.0,94,0.00,,,-99.99,,2013-03-04 11:42:00,
2013-03-04 06:52:00,27.0,26.0,-100.00,WSW,245,4.0,8.0,95,0.00,,,-99.99,,2013-03-04 11:52:00,
2013-03-04 07:02:00,28.0,26.0,-100.00,WSW,255,5.0,9.0,95,0.00,,,-99.99,,2013-03-04 12:02:00,
2013-03-04 07:11:00,28.0,27.0,-100.00,West,275,3.0,6.0,95,0.00,,,-99.99,,2013-03-04 12:11:00,
2013-03-04 07:22:00,28.0,27.0,-100.00,WSW,250,4.0,7.0,95,0.00,,,-99.99,,2013-03-04 12:22:00,
2013-03-04 07:32:00,28.0,27.0,-100.00,West,280,2.0,6.0,95,0.00,,,-99.99,,2013-03-04 12:32:00,
2013-03-04 07:42:00,28.0,27.0,-100.00,West,275,4.0,8.0,95,0.00,,,-99.99,,2013-03-04 12:42:00,
2013-03-04 07:52:00,28.0,26.0,-100.00,NW,320,3.0,7.0,94,0.00,,,-99.99,,2013-03-04 12:52:00,
2013-03-04 08:02:00,28.0,27.0,-100.00,West,270,2.0,6.0,94,0.00,,,-99.99,,2013-03-04 13:02:00,
2013-03-04 08:11:00,28.0,26.0,-100.00,West,280,4.0,7.0,93,0.00,,,-99.99,,2013-03-04 13:11:00,
2013-03-04 08:21:00,28.0,26.0,-100.00,WNW,300,4.0,8.0,93,0.00,,,-99.99,,2013-03-04 13:21:00,
2013-03-04 08:32:00,28.0,26.0,-100.00,WNW,285,2.0,7.0,93,0.00,,,-99.99,,2013-03-04 13:32:00,
2013-03-04 08:42:00,29.0,27.0,-100.00,West,275,4.0,6.0,92,0.00,,,-99.99,,2013-03-04 13:42:00,
2013-03-04 08:52:00,28.0,26.0,-100.00,NW,310,4.0,9.0,89,0.00,,,-99.99,,2013-03-04 13:52:00,
2013-03-04 09:01:00,29.0,26.0,-100.00,West,275,4.0,8.0,88,0.00,,,-99.99,,2013-03-04 14:01:00,
2013-03-04 09:11:00,29.0,25.0,-100.00,WNW,285,4.0,8.0,86,0.00,,,-99.99,,2013-03-04 14:11:00,
2013-03-04 09:22:00,29.0,25.0,-100.00,West,275,4.0,6.0,85,0.00,,,-99.99,,2013-03-04 14:22:00,
2013-03-04 09:32:00,29.0,25.0,-100.00,NW,315,4.0,9.0,84,0.00,,,-99.99,,2013-03-04 14:32:00,
2013-03-04 09:42:00,30.0,26.0,-100.00,SW,235,4.0,7.0,83,0.00,,,-99.99,,2013-03-04 14:42:00,
2013-03-04 09:52:00,30.0,25.0,-100.00,WSW,245,4.0,6.0,81,0.00,,,-99.99,,2013-03-04 14:52:00,
2013-03-04 10:02:00,30.0,25.0,-100.00,West,260,6.0,10.0,80,0.00,,,-99.99,,2013-03-04 15:02:00,
2013-03-04 10:11:00,30.0,25.0,-100.00,NW,305,3.0,9.0,79,0.00,,,-99.99,,2013-03-04 15:11:00,
2013-03-04 10:22:00,31.0,26.0,-100.00,West,270,3.0,9.0,80,0.00,,,-99.99,,2013-03-04 15:22:00,
2013-03-04 10:32:00,32.0,26.0,-100.00,WSW,255,4.0,9.0,79,0.00,,,-99.99,,2013-03-04 15:32:00,
2013-03-04 10:42:00,31.0,25.0,-100.00,West,280,6.0,12.0,78,0.00,,,-99.99,,2013-03-04 15:42:00,
2013-03-04 10:52:00,32.0,26.0,-100.00,West,270,4.0,11.0,79,0.00,,,-99.99,,2013-03-04 15:52:00,
2013-03-04 11:03:00,31.0,25.0,-100.00,West,280,6.0,12.0,78,0.00,,,-99.99,,2013-03-04 16:03:00,
2013-03-04 11:11:00,31.0,25.0,-100.00,WNW,290,6.0,10.0,77,0.00,,,-99.99,,2013-03-04 16:11:00,
2013-03-04 11:21:00,33.0,25.0,-100.00,WSW,240,6.0,9.0,73,0.00,,,-99.99,,2013-03-04 16:21:00,
2013-03-04 11:32:00,33.0,24.0,-100.00,WNW,285,7.0,10.0,70,0.00,,,-99.99,,2013-03-04 16:32:00,
2013-03-04 11:42:00,33.0,24.0,-100.00,WNW,285,7.0,10.0,70,0.00,,,-99.99,,2013-03-04 16:42:00,
2013-03-04 11:52:00,33.0,24.0,-100.00,West,260,9.0,13.0,69,0.00,,,-99.99,,2013-03-04 16:52:00,
2013-03-04 12:02:00,33.0,24.0,-100.00,West,270,6.0,12.0,68,0.00,,,-99.99,,2013-03-04 17:02:00,
2013-03-04 12:11:00,32.0,24.0,-100.00,West,280,6.0,13.0,70,0.00,,,-99.99,,2013-03-04 17:11:00,
2013-03-04 12:22:00,33.0,24.0,-100.00,West,275,7.0,11.0,70,0.00,,,-99.99,,2013-03-04 17:22:00,
2013-03-04 12:32:00,33.0,24.0,-100.00,West,280,7.0,13.0,69,0.00,,,-99.99,,2013-03-04 17:32:00,
2013-03-04 12:42:00,33.0,23.0,-100.00,WNW,290,7.0,13.0,66,0.00,,,-99.99,,2013-03-04 17:42:00,
2013-03-04 12:52:00,33.0,23.0,-100.00,West,280,7.0,12.0,67,0.00,,,-99.99,,2013-03-04 17:52:00,
2013-03-04 13:02:00,33.0,24.0,-100.00,NW,310,6.0,11.0,69,0.00,,,-99.99,,2013-03-04 18:02:00,
2013-03-04 13:11:00,35.0,25.0,-100.00,WNW,285,3.0,9.0,67,0.00,,,-99.99,,2013-03-04 18:11:00,
2013-03-04 13:22:00,35.0,25.0,-100.00,WNW,285,3.0,9.0,67,0.00,,,-99.99,,2013-03-04 18:22:00,
2013-03-04 13:32:00,34.0,24.0,-100.00,SW,215,6.0,13.0,66,0.00,,,-99.99,,2013-03-04 18:32:00,
2013-03-04 13:42:00,35.0,26.0,-100.00,WSW,245,5.0,12.0,68,0.00,,,-99.99,,2013-03-04 18:42:00,
2013-03-04 13:52:00,34.0,25.0,-100.00,West,280,4.0,11.0,69,0.00,,,-99.99,,2013-03-04 18:52:00,
2013-03-04 14:02:00,34.0,24.0,-100.00,WSW,255,6.0,10.0,67,0.00,,,-99.99,,2013-03-04 19:02:00,
2013-03-04 14:11:00,33.0,23.0,-100.00,West,275,9.0,12.0,64,0.00,,,-99.99,,2013-03-04 19:11:00,
2013-03-04 14:22:00,35.0,25.0,-100.00,WNW,290,4.0,11.0,66,0.00,,,-99.99,,2013-03-04 19:22:00,
2013-03-04 14:32:00,34.0,24.0,-100.00,WSW,255,9.0,12.0,68,0.00,,,-99.99,,2013-03-04 19:32:00,
2013-03-04 14:42:00,34.0,25.0,-100.00,WSW,250,9.0,12.0,68,0.00,,,-99.99,,2013-03-04 19:42:00,
2013-03-04 14:52:00,35.0,26.0,-100.00,SW,225,5.0,10.0,69,0.00,,,-99.99,,2013-03-04 19:52:00,
2013-03-04 15:02:00,35.0,26.0,-100.00,West,260,7.0,12.0,69,0.00,,,-99.99,,2013-03-04 20:02:00,
2013-03-04 15:11:00,35.0,26.0,-100.00,West,260,7.0,12.0,69,0.00,,,-99.99,,2013-03-04 20:11:00,
2013-03-04 15:22:00,34.0,26.0,-100.00,WNW,290,7.0,14.0,70,0.00,,,-99.99,,2013-03-04 20:22:00,
2013-03-04 15:32:00,35.0,25.0,-100.00,WSW,250,9.0,12.0,66,0.00,,,-99.99,,2013-03-04 20:32:00,
2013-03-04 15:42:00,34.0,24.0,-100.00,West,260,7.0,13.0,64,0.00,,,-99.99,,2013-03-04 20:42:00,
2013-03-04 15:53:00,35.0,25.0,-100.00,WNW,300,7.0,12.0,66,0.00,,,-99.99,,2013-03-04 20:53:00,
2013-03-04 16:02:00,35.0,25.0,-100.00,WSW,250,4.0,12.0,66,0.00,,,-99.99,,2013-03-04 21:02:00,
2013-03-04 16:12:00,36.0,25.0,-100.00,West,275,3.0,9.0,65,0.00,,,-99.99,,2013-03-04 21:12:00,
2013-03-04 16:22:00,36.0,25.0,-100.00,West,275,3.0,9.0,65,0.00,,,-99.99,,2013-03-04 21:22:00,
2013-03-04 16:32:00,35.0,26.0,-100.00,SW,235,4.0,11.0,68,0.00,,,-99.99,,2013-03-04 21:32:00,
2013-03-04 16:42:00,34.0,24.0,-100.00,WSW,245,6.0,12.0,66,0.00,,,-99.99,,2013-03-04 21:42:00,
2013-03-04 16:52:00,34.0,24.0,-100.00,West,265,7.0,9.0,66,0.00,,,-99.99,,2013-03-04 21:52:00,
2013-03-04 17:02:00,35.0,25.0,-100.00,WSW,240,7.0,12.0,66,0.00,,,-99.99,,2013-03-04 22:02:00,
2013-03-04 17:12:00,35.0,24.0,-100.00,WSW,240,6.0,9.0,65,0.00,,,-99.99,,2013-03-04 22:12:00,
2013-03-04 17:22:00,35.0,24.0,-100.00,WSW,240,6.0,9.0,65,0.00,,,-99.99,,2013-03-04 22:22:00,
2013-03-04 17:32:00,35.0,24.0,-100.00,West,265,3.0,7.0,64,0.00,,,-99.99,,2013-03-04 22:32:00,
2013-03-04 17:42:00,34.0,24.0,-100.00,West,265,6.0,8.0,66,0.00,,,-99.99,,2013-03-04 22:42:00,
2013-03-04 17:52:00,34.0,24.0,-100.00,WSW,250,4.0,9.0,66,0.00,,,-99.99,,2013-03-04 22:52:00,
2013-03-04 18:02:00,33.0,23.0,-100.00,WNW,295,4.0,9.0,67,0.00,,,-99.99,,2013-03-04 23:02:00,
2013-03-04 18:11:00,33.0,23.0,-100.00,WSW,245,3.0,7.0,67,0.00,,,-99.99,,2013-03-04 23:11:00,
2013-03-04 18:22:00,33.0,23.0,-100.00,WSW,240,3.0,6.0,67,0.00,,,-99.99,,2013-03-04 23:22:00,
2013-03-04 18:32:00,32.0,23.0,-100.00,WNW,285,2.0,5.0,67,0.00,,,-99.99,,2013-03-04 23:32:00,
2013-03-04 18:42:00,32.0,23.0,-100.00,WNW,295,1.0,6.0,68,0.00,,,-99.99,,2013-03-04 23:42:00,
2013-03-04 18:52:00,32.0,23.0,-100.00,NW,310,0.0,3.0,69,0.00,,,-99.99,,2013-03-04 23:52:00,
2013-03-04 19:02:00,31.0,23.0,-100.00,West,280,1.0,2.0,70,0.00,,,-99.99,,2013-03-05 00:02:00,
2013-03-04 19:12:00,31.0,23.0,-100.00,SW,235,0.0,2.0,71,0.00,,,-99.99,,2013-03-05 00:12:00,
2013-03-04 19:22:00,31.0,23.0,-100.00,NNW,345,0.0,2.0,73,0.00,,,-99.99,,2013-03-05 00:22:00,
2013-03-04 19:32:00,30.0,23.0,-100.00,NE,55,0.0,2.0,73,0.00,,,-99.99,,2013-03-05 00:32:00,
2013-03-04 19:42:00,30.0,22.0,-100.00,SW,230,0.0,1.0,74,0.00,,,-99.99,,2013-03-05 00:42:00,
2013-03-04 19:51:00,29.0,22.0,-100.00,NE,40,0.0,0.0,75,0.00,,,-99.99,,2013-03-05 00:51:00,
2013-03-04 20:02:00,29.0,22.0,-100.00,South,170,0.0,0.0,76,0.00,,,-99.99,,2013-03-05 01:02:00,
2013-03-04 20:12:00,29.0,23.0,-100.00,SW,215,0.0,0.0,76,0.00,,,-99.99,,2013-03-05 01:12:00,
2013-03-04 20:22:00,29.0,22.0,-100.00,SE,145,0.0,0.0,76,0.00,,,-99.99,,2013-03-05 01:22:00,
2013-03-04 20:32:00,29.0,22.0,-100.00,SE,140,0.0,1.0,77,0.00,,,-99.99,,2013-03-05 01:32:00,
2013-03-04 20:42:00,28.0,22.0,-100.00,SSE,155,1.0,1.0,77,0.00,,,-99.99,,2013-03-05 01:42:00,
2013-03-04 20:52:00,28.0,22.0,-100.00,SE,125,0.0,0.0,78,0.00,,,-99.99,,2013-03-05 01:52:00,
2013-03-04 21:01:00,28.0,22.0,-100.00,ESE,110,0.0,0.0,78,0.00,,,-99.99,,2013-03-05 02:01:00,
2013-03-04 21:11:00,28.0,22.0,-100.00,ESE,115,0.0,0.0,79,0.00,,,-99.99,,2013-03-05 02:11:00,
2013-03-04 21:22:00,28.0,22.0,-100.00,SE,135,0.0,0.0,79,0.00,,,-99.99,,2013-03-05 02:22:00,
2013-03-04 21:32:00,27.0,22.0,-100.00,SE,140,0.0,0.0,80,0.00,,,-99.99,,2013-03-05 02:32:00,
2013-03-04 21:42:00,27.0,22.0,-100.00,SE,135,0.0,0.0,81,0.00,,,-99.99,,2013-03-05 02:42:00,
2013-03-04 21:52:00,27.0,22.0,-100.00,SE,145,1.0,1.0,81,0.00,,,-99.99,,2013-03-05 02:52:00,
2013-03-04 22:02:00,27.0,22.0,-100.00,SE,135,0.0,1.0,82,0.00,,,-99.99,,2013-03-05 03:02:00,
2013-03-04 22:12:00,27.0,22.0,-100.00,SE,140,1.0,1.0,82,0.00,,,-99.99,,2013-03-05 03:12:00,
2013-03-04 22:22:00,27.0,22.0,-100.00,SE,140,0.0,1.0,83,0.00,,,-99.99,,2013-03-05 03:22:00,
2013-03-04 22:32:00,26.0,22.0,-100.00,SE,135,0.0,1.0,83,0.00,,,-99.99,,2013-03-05 03:32:00,
2013-03-04 22:42:00,26.0,22.0,-100.00,SSE,165,2.0,2.0,84,0.00,,,-99.99,,2013-03-05 03:42:00,
2013-03-04 22:52:00,26.0,22.0,-100.00,SE,135,1.0,2.0,85,0.00,,,-99.99,,2013-03-05 03:52:00,
2013-03-04 23:02:00,26.0,22.0,-100.00,SE,135,0.0,1.0,86,0.00,,,-99.99,,2013-03-05 04:02:00,
2013-03-04 23:12:00,26.0,23.0,-100.00,SSE,150,2.0,3.0,88,0.00,,,-99.99,,2013-03-05 04:12:00,
2013-03-04 23:22:00,26.0,23.0,-100.00,SSE,150,1.0,2.0,88,0.00,,,-99.99,,2013-03-05 04:22:00,
2013-03-04 23:32:00,26.0,23.0,-100.00,SE,140,1.0,2.0,89,0.00,,,-99.99,,2013-03-05 04:32:00,
2013-03-04 23:42:00,25.0,23.0,-100.00,SE,140,1.0,2.0,91,0.00,,,-99.99,,2013-03-05 04:42:00,
2013-03-04 23:52:00,25.0,23.0,-100.00,SE,130,0.0,2.0,92,0.00,,,-99.99,,2013-03-05 04:52:00,